[[{"header":{"parameterUnit":"m.s-1","parameterCategory":1,"la1":30.2991,"la2":30.254,"lo1":-89.0895,"lo2":-89.0444,"dy":0.0017,"dx":0.0017,"nx":28,"ny":28,"refTime":"2024-08-27T21:00:00:Z","depth":0,"parameterNumber":2,"parameterNumberName":"U-component_of_WINDS"},"data":[0,0,0,0,0,0,0,0,0,0,0,0,0,0,0,0,0,0,0,0,0,0,0,0,0,0,0,0,0,0,0,0,0,0,0,0,0,0,0,0,0,0,0,0,0,0,0,0,0,0,0,0,0,0,0,0,0,0,-4.1634,-4.1634,0,-4.1669,-4.167,-4.167,-4.1662,-4.1662,-4.1661,-4.166,-4.1693,-4.1694,-4.1696,0,0,0,0,0,0,0,0,0,0,0,0,0,-4.1556,-4.1558,-4.1634,-4.1634,-4.1635,-4.1669,-4.167,-4.167,-4.1662,-4.1662,-4.1661,-4.166,-4.1692,-4.1694,-4.1696,0,0,0,0,0,0,0,0,0,0,0,0,0,-4.1591,-4.1558,-4.1634,-4.1635,-4.1636,-4.1669,-4.167,-4.1671,-4.1663,-4.1662,-4.1661,-4.166,-4.1692,-4.1694,-4.1696,-4.1729,0,0,-4.1703,-4.1704,0,0,0,0,0,0,0,0,-4.1589,-4.1593,-4.1635,-4.1635,-4.1636,-4.1661,-4.1654,-4.169,-4.1663,-4.1652,-4.166,-4.1659,-4.1682,-4.1685,-4.1694,-4.1731,-4.1732,-4.1703,-4.1704,-4.1705,-4.1706,0,0,0,0,0,0,0,-4.1586,-4.1592,-4.1648,-4.1635,-4.1636,-4.1633,-4.1637,-4.1661,-4.1672,-4.1653,-4.1653,-4.1657,-4.1683,-4.1692,-4.1695,-4.1733,-4.1703,-4.1705,-4.1706,-4.1707,-4.1799,-4.18,0,0,0,0,0,0,-4.1584,-4.159,-4.1647,-4.1649,-4.1609,-4.1635,-4.1639,-4.1653,-4.1672,-4.1674,-4.1658,-4.1657,-4.1689,-4.1692,-4.1696,-4.1736,-4.1705,-4.1707,-4.1708,-4.1798,-4.1799,-4.18,0,0,0,0,0,0,-4.1582,-4.1589,-4.1645,-4.1619,-4.1626,-4.1638,-4.1653,-4.1655,-4.1664,-4.1676,-4.1677,-4.1666,-4.1688,-4.1693,-4.1721,-4.1737,-4.1708,-4.171,-4.1796,-4.1798,-4.1799,-4.1816,0,0,0,0,0,0,-4.158,-4.1589,-4.1602,-4.162,-4.1628,-4.1671,-4.1654,-4.1656,-4.1668,-4.1667,-4.1683,-4.1685,-4.1688,-4.1718,-4.1724,-4.1739,-4.1712,-4.1795,-4.1797,-4.1799,-4.1814,-4.1818,-4.1821,0,0,0,0,0,-4.1577,-4.1604,-4.1602,-4.1609,-4.1645,-4.1672,-4.1676,-4.168,-4.167,-4.1683,-4.169,-4.1685,-4.1735,-4.1721,-4.1727,-4.1744,-4.1794,-4.1796,-4.1799,-4.1812,-4.1817,-4.1821,0,0,0,0,0,0,-4.1585,-4.1606,-4.1605,-4.1638,-4.1654,-4.1671,-4.1687,-4.1685,-4.1702,-4.17,-4.1702,-4.1706,-4.1735,-4.1743,-4.1727,-4.1777,-4.1763,-4.1766,-4.1771,-4.1775,-4.1779,-4.1775,-4.1714,0,0,0,0,0,-4.1592,-4.1613,-4.163,-4.1658,-4.1666,-4.1675,-4.1687,-4.1689,-4.1704,-4.171,-4.172,-4.1734,-4.1753,-4.1765,-4.1783,-4.1816,-4.1818,-4.183,-4.1834,-4.1837,-4.1839,-4.1857,-4.1862,-4.1808,-4.1808,-4.1808,0,0,-4.1603,-4.1617,-4.163,-4.166,-4.1672,-4.1693,-4.168,-4.1703,-4.1718,-4.1713,-4.174,-4.1748,-4.1764,-4.1795,-4.1809,-4.1802,-4.1855,-4.184,-4.1842,-4.1843,-4.186,-4.1865,-4.1869,-4.181,-4.181,-4.1809,0,0,-4.1635,-4.1649,-4.1674,-4.1687,-4.1706,-4.1712,-4.1718,-4.1736,-4.1742,-4.177,-4.1767,-4.1785,-4.1817,-4.1829,-4.1839,-4.1878,-4.1873,-4.1884,-4.1901,-4.1918,-4.1923,-4.1926,-4.1939,-4.1943,-4.1887,-4.1887,-4.1887,0,-4.1647,-4.168,-4.1686,-4.171,-4.1722,-4.1721,-4.1745,-4.1757,-4.178,-4.1789,-4.1781,-4.1823,-4.1834,-4.1867,-4.1876,-4.1885,-4.1891,-4.188,-4.1922,-4.1926,-4.1929,-4.1941,-4.1946,-4.1888,-4.1888,-4.1888,-4.1887,0,-4.1693,-4.1716,-4.1733,-4.1758,-4.1773,-4.1796,-4.1805,-4.182,-4.1821,-4.1828,-4.1857,-4.187,-4.1891,-4.1899,-4.19,-4.1933,-4.1928,-4.1921,-4.1906,-4.1935,-4.1946,-4.1951,-4.1889,-4.1889,-4.1889,-4.1888,0,0,-4.1727,-4.1758,-4.1764,-4.1775,-4.1797,-4.1814,-4.1838,-4.186,-4.1872,-4.1889,-4.1908,-4.1937,-4.1931,-4.1943,-4.1945,-4.196,-4.1989,-4.1952,-4.1952,-4.1957,-4.2025,-4.2028,-4.2033,-4.1987,-4.1988,-4.1989,-4.2023,0,-4.176,-4.1804,-4.1811,-4.1848,-4.1869,-4.1869,-4.189,-4.1905,-4.1913,-4.1931,-4.194,-4.196,-4.1952,-4.1959,-4.1974,-4.1982,-4.2002,-4.198,-4.2003,-4.2004,-4.1997,-4.2039,-4.2043,-4.2074,-4.2027,-4.2028,-4.2029,0,-4.1803,-4.1823,-4.1863,-4.1884,-4.1893,-4.1911,-4.1932,-4.195,-4.1968,-4.1972,-4.1986,-4.1987,-4.2011,-4.1998,-4.203,-4.2015,-4.2025,-4.2031,-4.2032,-4.2032,-4.2016,-4.2039,-4.2084,-4.2088,-4.2036,-4.2035,-4.2035,0,-4.1823,-4.186,-4.1889,-4.1899,-4.1924,-4.1936,-4.1947,-4.1964,-4.1977,-4.1995,-4.2004,-4.2024,-4.2035,-4.205,-4.2056,-4.2046,-4.2088,-4.2075,-4.2091,-4.2091,-4.2097,-4.2096,-4.2143,-4.2108,-4.2108,-4.2107,-4.2107,0,-4.1858,-4.1881,-4.1898,-4.1915,-4.1942,-4.1951,-4.1977,-4.1987,-4.2002,-4.2021,-4.2023,-4.204,-4.2048,-4.2066,-4.2071,-4.2097,-4.2102,-4.2105,-4.2106,-4.2104,-4.2103,-4.2108,-4.2106,-4.2109,-4.2108,-4.2108,-4.2108,0,-4.1883,-4.1895,-4.1926,-4.1948,-4.1954,-4.1973,-4.1991,-4.2007,-4.2017,-4.204,-4.2046,-4.2059,-4.2081,-4.209,-4.2116,-4.2119,-4.2148,-4.2148,-4.2142,-4.2142,-4.2157,-4.2154,-4.2206,-4.2213,-4.2175,-4.2176,-4.2176,0,-4.1903,-4.1922,-4.1946,-4.196,-4.1971,-4.1993,-4.2007,-4.2017,-4.2031,-4.2053,-4.2066,-4.2089,-4.2107,-4.2141,-4.2152,-4.2172,-4.2171,-4.2188,-4.2174,-4.2171,-4.2169,-4.2167,-4.2169,-4.219,-4.219,-4.2191,-4.2191,0,-4.1937,-4.1942,-4.1963,-4.1987,-4.2004,-4.2022,-4.204,-4.2051,-4.2063,-4.2079,-4.2102,-4.2116,-4.2144,-4.2165,-4.2186,-4.2196,-4.2195,-4.2196,-4.22,-4.2197,-4.2193,-4.2194,-4.2147,-4.2194,-4.2194,-4.2193,-4.2193,-4.2193,-4.1959,-4.1975,-4.1996,-4.2019,-4.2034,-4.2051,-4.2068,-4.208,-4.21,-4.2124,-4.2129,-4.2153,-4.2171,-4.2199,-4.221,-4.2228,-4.2224,-4.223,-4.2232,-4.2233,-4.2233,-4.2192,-4.2232,-4.2232,-4.2232,-4.2232,-4.2232,0,-4.1991,-4.2005,-4.2027,-4.2053,-4.2071,-4.2072,-4.2092,-4.2106,-4.2128,-4.2146,-4.2164,-4.2191,-4.2212,-4.2226,-4.2247,-4.2259,-4.2259,-4.2264,-4.2262,-4.2264,-4.2237,-4.223,-4.2264,-4.2264,-4.2263,-4.2263,-4.2263,-4.2263,-4.201,-4.2038,-4.2047,-4.2083,-4.2096,-4.2121,-4.2133,-4.2148,-4.2162,-4.2192,-4.221,-4.222,-4.2236,-4.2259,-4.2278,-4.2281,-4.2288,-4.2293,-4.2296,-4.2269,-4.2266,-4.2263,-4.2256,-4.2295,-4.2295,-4.2322,-4.2322,-4.2322]},{"header":{"parameterUnit":"m.s-1","parameterCategory":1,"la1":30.2991,"la2":30.254,"lo1":-89.0895,"lo2":-89.0444,"dy":0.0017,"dx":0.0017,"nx":28,"ny":28,"refTime":"2024-08-27T21:00:00:Z","depth":0,"parameterNumber":3,"parameterNumberName":"V-component_of_WINDS"},"data":[0,0,0,0,0,0,0,0,0,0,0,0,0,0,0,0,0,0,0,0,0,0,0,0,0,0,0,0,0,0,0,0,0,0,0,0,0,0,0,0,0,0,0,0,0,0,0,0,0,0,0,0,0,0,0,0,0,0,2.9442,2.9442,0,2.9418,2.9418,2.9418,2.9431,2.9431,2.9432,2.9433,2.9402,2.9401,2.9399,0,0,0,0,0,0,0,0,0,0,0,0,0,2.9495,2.9494,2.9442,2.9442,2.9442,2.9418,2.9418,2.9418,2.9431,2.9431,2.9432,2.9433,2.9403,2.9401,2.9399,0,0,0,0,0,0,0,0,0,0,0,0,0,2.9471,2.9494,2.9442,2.9446,2.9446,2.9418,2.9418,2.9417,2.943,2.9431,2.9433,2.9433,2.9403,2.9401,2.9399,2.9365,0,0,2.9392,2.9392,0,0,0,0,0,0,0,0,2.9473,2.9469,2.9445,2.9445,2.9445,2.9429,2.9425,2.94,2.943,2.9436,2.9433,2.9434,2.941,2.9407,2.94,2.9364,2.9363,2.9392,2.9391,2.939,2.9389,0,0,0,0,0,0,0,2.9474,2.9471,2.9433,2.9445,2.9445,2.9447,2.9444,2.942,2.9417,2.9436,2.9437,2.9434,2.941,2.9402,2.94,2.9362,2.9392,2.939,2.9389,2.9388,2.9298,2.9297,0,0,0,0,0,0,2.9476,2.9472,2.9433,2.9432,2.9462,2.9445,2.9442,2.9433,2.9418,2.9416,2.9433,2.9435,2.9406,2.9402,2.9399,2.9359,2.939,2.9388,2.9387,2.9299,2.9297,2.9296,0,0,0,0,0,0,2.9478,2.9473,2.9434,2.9452,2.9447,2.9443,2.9432,2.9432,2.9424,2.9416,2.9415,2.9426,2.9406,2.9402,2.9374,2.9358,2.9387,2.9385,2.93,2.9298,2.9297,2.9279,0,0,0,0,0,0,2.9479,2.9473,2.9462,2.9452,2.9446,2.9412,2.9431,2.9431,2.9421,2.9423,2.9409,2.9408,2.9407,2.9377,2.9372,2.9355,2.9383,2.9301,2.9299,2.9297,2.9281,2.9277,2.9273,0,0,0,0,0,2.9481,2.9456,2.9461,2.9456,2.9432,2.9411,2.9407,2.9408,2.942,2.9407,2.9402,2.9408,2.9361,2.9374,2.9368,2.9351,2.9302,2.93,2.9297,2.9282,2.9277,2.9273,0,0,0,0,0,0,2.9462,2.9455,2.946,2.9432,2.9422,2.9413,2.9397,2.9403,2.9388,2.939,2.939,2.9387,2.9359,2.9352,2.9367,2.9318,2.9333,2.9329,2.9324,2.9319,2.9315,2.9317,2.9382,0,0,0,0,0,2.9454,2.944,2.9434,2.9409,2.9404,2.9402,2.9392,2.9394,2.9383,2.9379,2.9371,2.9359,2.9341,2.933,2.9313,2.928,2.9277,2.9265,2.9261,2.9258,2.9255,2.9237,2.9232,2.9288,2.9288,2.9288,0,0,2.9439,2.9433,2.9423,2.9405,2.9398,2.9381,2.9398,2.9379,2.9366,2.9375,2.935,2.9344,2.933,2.93,2.9286,2.9293,2.9238,2.9255,2.9252,2.9251,2.9234,2.9228,2.9224,2.9286,2.9287,2.9287,0,0,2.9402,2.9396,2.9376,2.9368,2.9358,2.9357,2.9352,2.9342,2.9339,2.9314,2.9321,2.9304,2.9274,2.9264,2.9255,2.9216,2.9221,2.921,2.919,2.9173,2.9168,2.9164,2.915,2.9145,2.9207,2.9206,2.9206,0,2.9383,2.936,2.9363,2.9345,2.9337,2.9346,2.9325,2.9317,2.93,2.9294,2.9303,2.9266,2.9257,2.9225,2.9215,2.9208,2.9201,2.9211,2.9169,2.9165,2.9161,2.9148,2.9143,2.9205,2.9205,2.9206,2.9206,0,2.9337,2.9321,2.9305,2.9292,2.9282,2.9261,2.9261,2.925,2.9253,2.925,2.9224,2.9214,2.9196,2.9188,2.919,2.9156,2.9162,2.917,2.9185,2.9155,2.9142,2.9137,2.9204,2.9204,2.9204,2.9205,0,0,2.9287,2.9277,2.9271,2.9266,2.9256,2.9242,2.9222,2.9206,2.9197,2.9185,2.9168,2.9143,2.9151,2.914,2.9141,2.9126,2.9096,2.9136,2.9135,2.9129,2.9058,2.9053,2.9047,2.9099,2.9098,2.9097,2.906,0,2.925,2.9217,2.9221,2.9189,2.9174,2.9183,2.9165,2.9156,2.9153,2.9139,2.9134,2.9117,2.9128,2.9123,2.9108,2.9102,2.9081,2.9105,2.9082,2.9081,2.9086,2.904,2.9034,2.8999,2.9055,2.9054,2.9053,0,2.9202,2.9192,2.9159,2.9152,2.9146,2.913,2.9116,2.9103,2.9092,2.9091,2.9081,2.9084,2.9062,2.9078,2.9048,2.9065,2.9055,2.9051,2.905,2.9048,2.9066,2.9037,2.8988,2.8983,2.9046,2.9046,2.9047,0,2.9169,2.9147,2.9125,2.9119,2.911,2.9099,2.9094,2.9085,2.9076,2.9063,2.9057,2.9041,2.9032,2.9019,2.9018,2.903,2.8988,2.9003,2.8985,2.8985,2.8976,2.8977,2.8925,2.897,2.897,2.897,2.897,0,2.9128,2.9108,2.911,2.9096,2.9074,2.9077,2.9054,2.905,2.9042,2.9027,2.9033,2.9018,2.9017,2.9002,2.9,2.8976,2.8971,2.8969,2.8969,2.8969,2.8969,2.8963,2.8965,2.8968,2.8969,2.8969,2.8969,0,2.9087,2.9088,2.9065,2.9059,2.9057,2.9041,2.9035,2.9021,2.9019,2.9,2.8995,2.8992,2.8974,2.8971,2.8949,2.8948,2.8919,2.8921,2.8924,2.8924,2.8906,2.8908,2.8849,2.8841,2.889,2.889,2.889,0,2.9061,2.9046,2.9039,2.9031,2.9026,2.9012,2.9003,2.9005,2.8995,2.8983,2.897,2.8954,2.8941,2.8911,2.8905,2.8889,2.8891,2.8871,2.8888,2.8889,2.8891,2.8892,2.8891,2.8868,2.8867,2.8867,2.8867,0,2.9014,2.9016,2.9004,2.8992,2.8982,2.8972,2.8963,2.8955,2.8956,2.8944,2.8928,2.8918,2.8897,2.888,2.8864,2.8857,2.8862,2.8861,2.8856,2.8856,2.8858,2.8858,2.8915,2.8863,2.8863,2.8863,2.8864,2.8864,2.8981,2.8968,2.8962,2.8948,2.8942,2.8934,2.8921,2.8918,2.8905,2.889,2.8891,2.8872,2.8862,2.8842,2.8834,2.8818,2.8825,2.8817,2.8815,2.8814,2.8812,2.8861,2.8815,2.8815,2.8815,2.8815,2.8815,0,2.8935,2.8931,2.8919,2.8907,2.8897,2.8904,2.8894,2.8884,2.8868,2.8859,2.8847,2.8827,2.8811,2.8805,2.8789,2.8777,2.8779,2.8773,2.8774,2.8772,2.8807,2.8814,2.8772,2.8772,2.8772,2.8772,2.8772,2.8772,2.891,2.8889,2.889,2.8866,2.8863,2.8846,2.884,2.8832,2.8825,2.8804,2.8791,2.8788,2.878,2.8763,2.8748,2.8747,2.874,2.8733,2.8733,2.8765,2.877,2.8774,2.878,2.8732,2.8732,2.8699,2.8699,2.8699]}]]